When you browse on this site, cookies collect data to enhance your experience and personalize the content and advertising you see.
Visit our Privacy Policy to learn more. By continuing to use the site, you agree to this use of cookies and data.
  • In France
  • List of Countries
  • For 7 days
  • Water Temperature
  • Weather Map
  • Weather Widgets
  • user-avatar
    Login

    Hourly Weather Mulhule

    Today, 29 May, Friday

    Time Temperature Precipitation Wind Pressure Humidity
    00:00 +35°C° 0 mm 5 mps 754 mmHg 57%
    01:00 +34°C° 0 mm 6 mps 754 mmHg 59%
    02:00 +34°C° 0 mm 6 mps 753 mmHg 61%
    03:00 +33°C° 0 mm 6 mps 753 mmHg 63%
    04:00 +33°C° 0 mm 5 mps 753 mmHg 63%
    05:00 +33°C° 0 mm 5 mps 753 mmHg 62%
    06:00 +33°C° 0 mm 4 mps 753 mmHg 61%
    07:00 +35°C° 0 mm 5 mps 754 mmHg 54%
    08:00 +36°C° 0 mm 6 mps 754 mmHg 48%
    09:00 +39°C° 0 mm 7 mps 755 mmHg 41%
    10:00 +40°C° 0 mm 7 mps 754 mmHg 39%
    11:00 +41°C° 0 mm 8 mps 754 mmHg 37%
    12:00 +43°C° 0 mm 8 mps 753 mmHg 36%
    13:00 +43°C° 0 mm 8 mps 753 mmHg 36%
    14:00 +43°C° 0 mm 8 mps 752 mmHg 37%
    15:00 +43°C° 0 mm 8 mps 751 mmHg 37%
    16:00 +40°C° 0 mm 8 mps 751 mmHg 45%
    17:00 +38°C° 0 mm 8 mps 751 mmHg 52%
    18:00 +35°C° 0 mm 8 mps 751 mmHg 60%
    19:00 +35°C° 0 mm 8 mps 752 mmHg 66%
    20:00 +34°C° 0 mm 8 mps 752 mmHg 71%
    21:00 +33°C° 0 mm 8 mps 753 mmHg 77%
    22:00 +33°C° 0 mm 8 mps 753 mmHg 77%
    23:00 +33°C° 0 mm 8 mps 753 mmHg 77%

    Tomorrow, 30 May, Saturday

    Time Temperature Precipitation Wind Pressure Humidity
    00:00 +32°C° 0 mm 8 mps 752 mmHg 77%
    01:00 +32°C° 0 mm 8 mps 752 mmHg 74%
    02:00 +32°C° 0 mm 8 mps 752 mmHg 70%
    03:00 +32°C° 0 mm 8 mps 751 mmHg 67%
    04:00 +32°C° 0 mm 8 mps 752 mmHg 67%
    05:00 +32°C° 0 mm 8 mps 752 mmHg 68%
    06:00 +32°C° 0 mm 8 mps 752 mmHg 68%
    07:00 +33°C° 0 mm 8 mps 753 mmHg 63%
    08:00 +35°C° 0 mm 9 mps 753 mmHg 58%
    09:00 +37°C° 0 mm 10 mps 754 mmHg 52%
    10:00 +38°C° 0 mm 10 mps 753 mmHg 52%
    11:00 +38°C° 0 mm 11 mps 753 mmHg 52%
    12:00 +39°C° 0 mm 11 mps 753 mmHg 52%
    13:00 +39°C° 0 mm 11 mps 752 mmHg 53%
    14:00 +39°C° 0 mm 11 mps 752 mmHg 53%
    15:00 +38°C° 0 mm 11 mps 751 mmHg 53%
    16:00 +37°C° 0 mm 10 mps 751 mmHg 58%
    17:00 +36°C° 0 mm 10 mps 751 mmHg 64%
    18:00 +34°C° 0 mm 9 mps 751 mmHg 69%
    19:00 +34°C° 0 mm 9 mps 752 mmHg 73%
    20:00 +33°C° 0 mm 8 mps 753 mmHg 76%
    21:00 +32°C° 0 mm 8 mps 753 mmHg 80%
    22:00 +32°C° 0 mm 8 mps 753 mmHg 80%
    23:00 +32°C° 0 mm 8 mps 753 mmHg 79%

    Day after tomorrow, 31 May, Sunday

    Time Temperature Precipitation Wind Pressure Humidity
    00:00 +32°C° 0 mm 7 mps 753 mmHg 79%
    01:00 +32°C° 0 mm 7 mps 753 mmHg 76%
    02:00 +30°C° 0 mm 6 mps 753 mmHg 73%
    03:00 +30°C° 0 mm 6 mps 753 mmHg 70%
    04:00 +30°C° 0 mm 5 mps 753 mmHg 71%
    05:00 +30°C° 0 mm 4 mps 754 mmHg 72%
    06:00 +30°C° 0 mm 3 mps 754 mmHg 72%
    07:00 +32°C° 0 mm 4 mps 754 mmHg 66%
    08:00 +34°C° 0 mm 5 mps 755 mmHg 60%
    09:00 +36°C° 0 mm 6 mps 755 mmHg 55%
    10:00 +36°C° 0 mm 7 mps 755 mmHg 54%
    11:00 +38°C° 0 mm 7 mps 754 mmHg 53%
    12:00 +39°C° 0 mm 8 mps 754 mmHg 52%
    13:00 +39°C° 0 mm 8 mps 753 mmHg 52%
    14:00 +39°C° 0 mm 8 mps 753 mmHg 53%
    15:00 +39°C° 0 mm 8 mps 752 mmHg 53%
    16:00 +38°C° 0 mm 8 mps 752 mmHg 58%
    17:00 +37°C° 0 mm 8 mps 752 mmHg 62%
    18:00 +34°C° 0 mm 8 mps 752 mmHg 67%
    19:00 +34°C° 0 mm 8 mps 752 mmHg 70%
    20:00 +33°C° 0 mm 8 mps 753 mmHg 73%
    21:00 +33°C° 0 mm 8 mps 753 mmHg 76%
    22:00 +33°C° 0 mm 8 mps 753 mmHg 76%
    23:00 +32°C° 0 mm 8 mps 753 mmHg 76%

    1 June, Monday

    Time Temperature Precipitation Wind Pressure Humidity
    00:00 +32°C° 0 mm 8 mps 753 mmHg 76%
    01:00 +32°C° 0 mm 8 mps 753 mmHg 74%
    02:00 +32°C° 0 mm 7 mps 753 mmHg 72%
    03:00 +32°C° 0 mm 6 mps 752 mmHg 70%
    04:00 +32°C° 0 mm 6 mps 753 mmHg 70%
    05:00 +32°C° 0 mm 5 mps 753 mmHg 70%
    06:00 +32°C° 0 mm 5 mps 753 mmHg 70%
    07:00 +33°C° 0 mm 5 mps 754 mmHg 62%
    08:00 +35°C° 0 mm 6 mps 754 mmHg 54%
    09:00 +36°C° 0 mm 6 mps 755 mmHg 46%
    10:00 +38°C° 0 mm 7 mps 754 mmHg 46%
    11:00 +39°C° 0 mm 7 mps 754 mmHg 46%
    12:00 +39°C° 0 mm 8 mps 754 mmHg 46%
    13:00 +39°C° 0 mm 8 mps 753 mmHg 48%
    14:00 +39°C° 0 mm 8 mps 752 mmHg 51%
    15:00 +38°C° 0 mm 8 mps 752 mmHg 53%
    16:00 +38°C° 0 mm 8 mps 752 mmHg 56%
    17:00 +37°C° 0 mm 8 mps 752 mmHg 59%
    18:00 +35°C° 0 mm 7 mps 752 mmHg 63%
    19:00 +34°C° 0 mm 6 mps 752 mmHg 66%
    20:00 +33°C° 0 mm 5 mps 752 mmHg 68%
    21:00 +33°C° 0 mm 4 mps 753 mmHg 71%
    22:00 +33°C° 0 mm 5 mps 753 mmHg 74%
    23:00 +32°C° 0 mm 6 mps 753 mmHg 76%

    2 June, Tuesday

    Time Temperature Precipitation Wind Pressure Humidity
    00:00 +32°C° 0 mm 6 mps 753 mmHg 78%
    01:00 +33°C° 0 mm 5 mps 752 mmHg 71%
    02:00 +33°C° 0 mm 4 mps 752 mmHg 65%
    03:00 +34°C° 0 mm 2 mps 752 mmHg 58%
    04:00 +34°C° 0 mm 2 mps 752 mmHg 63%
    05:00 +32°C° 0 mm 2 mps 753 mmHg 68%
    06:00 +32°C° 0 mm 2 mps 753 mmHg 73%
    07:00 +34°C° 0 mm 2 mps 753 mmHg 69%
    08:00 +35°C° 0 mm 2 mps 754 mmHg 65%
    09:00 +36°C° 0 mm 2 mps 754 mmHg 60%
    10:00 +37°C° 0 mm 2 mps 754 mmHg 55%
    11:00 +38°C° 0 mm 2 mps 753 mmHg 49%
    12:00 +39°C° 0 mm 2 mps 753 mmHg 43%
    13:00 +40°C° 0 mm 4 mps 753 mmHg 45%
    14:00 +40°C° 0 mm 5 mps 752 mmHg 47%
    15:00 +39°C° 0 mm 6 mps 751 mmHg 50%
    16:00 +38°C° 0 mm 6 mps 752 mmHg 53%
    17:00 +38°C° 0 mm 6 mps 752 mmHg 56%
    18:00 +36°C° 0 mm 5 mps 752 mmHg 59%
    19:00 +35°C° 0 mm 4 mps 752 mmHg 59%
    20:00 +35°C° 0 mm 3 mps 753 mmHg 59%
    21:00 +35°C° 0 mm 2 mps 753 mmHg 59%
    22:00 +35°C° 0 mm 4 mps 753 mmHg 62%
    23:00 +35°C° 0 mm 5 mps 753 mmHg 64%

    3 June, Wednesday

    Time Temperature Precipitation Wind Pressure Humidity
    00:00 +34°C° 0 mm 6 mps 753 mmHg 67%
    01:00 +34°C° 0.2 mm 6 mps 753 mmHg 67%
    02:00 +34°C° 0.2 mm 6 mps 752 mmHg 68%
    03:00 +34°C° 0.2 mm 6 mps 752 mmHg 69%
    04:00 +34°C° 0 mm 7 mps 752 mmHg 68%
    05:00 +34°C° 0 mm 7 mps 753 mmHg 67%
    06:00 +34°C° 0 mm 8 mps 753 mmHg 66%
    07:00 +34°C° 0 mm 8 mps 753 mmHg 64%
    08:00 +34°C° 0 mm 8 mps 754 mmHg 63%
    09:00 +34°C° 0 mm 7 mps 754 mmHg 61%
    10:00 +35°C° 0 mm 7 mps 754 mmHg 57%
    11:00 +36°C° 0 mm 7 mps 754 mmHg 52%
    12:00 +38°C° 0 mm 7 mps 753 mmHg 48%
    13:00 +38°C° 0.1 mm 8 mps 753 mmHg 49%
    14:00 +38°C° 0.1 mm 9 mps 752 mmHg 50%
    15:00 +38°C° 0.1 mm 9 mps 752 mmHg 50%
    16:00 +37°C° 0 mm 9 mps 752 mmHg 54%
    17:00 +35°C° 0 mm 9 mps 752 mmHg 58%
    18:00 +35°C° 0 mm 9 mps 752 mmHg 61%
    19:00 +35°C° 0 mm 9 mps 752 mmHg 60%
    20:00 +35°C° 0 mm 9 mps 753 mmHg 60%
    21:00 +35°C° 0 mm 9 mps 753 mmHg 59%
    22:00 +34°C° 0 mm 9 mps 754 mmHg 61%
    23:00 +34°C° 0 mm 9 mps 754 mmHg 64%
    Show more